Weather History for St. Johns, AZ

Change the Weather History Date:

Thursday, June 28, 2012

  Actual Average (KSOW) Record (KSOW)
Temperature  
Mean Temperature 68 °F -  
Max Temperature 86 °F 83 °F 98 °F (1973)
Min Temperature 50 °F 65 °F 41 °F (1972)
Cooling Degree Days 3    
Growing Degree Days 18 (Base 50)    
Moisture  
Dew Point 41 °F    
Average Humidity 29    
Maximum Humidity 66    
Minimum Humidity 10    
Precipitation  
Precipitation 0.00 in - - ()
Sea Level Pressure  
Sea Level Pressure 30.00 in    
Wind  
Wind Speed 7 mph (SSW)    
Max Wind Speed 37 mph    
Max Gust Speed 54 mph    
Visibility 10 miles    
Events Rain , Thunderstorm    
Averages and records for this station are not official NWS values.
T = Trace of Precipitation, MM = Missing Value Source: NWS Daily Summary

Daily Weather History Graph

Daily Weather History Graph

Search for Another Location

Airport:

Trip Planner

Search our weather history database for the weather conditions in past years. The results will help you decide how hot, cold, wet, or windy it might be!

Date:

Astronomy

Jun. 28, 2012 Rise Set
Actual Time 5:07 AM MST 7:34 PM MST
Civil Twilight 4:38 AM MST 8:03 PM MST
Nautical Twilight 4:01 AM MST 8:39 PM MST
Astronomical Twilight 3:21 AM MST 9:19 PM MST
Moon 2:19 PM MST (6/28) 12:33 AM MST (6/28)
Length of Visible Light 15h 25m
Length of Day
14h 26m
Waxing Gibbous, 68% of the Moon is Illuminated
Jun 28
Waxing Gibbous
Jul 3
Full
Jul 10
Last Quarter
Jul 18
New
Jul 26
First Quarter

Hourly Weather History & Observations

Time (MST) Temp. Dew Point Humidity Pressure Visibility Wind Dir Wind Speed Gust Speed Precip Events Conditions
12:54 AM 68.0 °F 44.1 °F 42% 29.89 in 10.0 mi East 4.6 mph - N/A   Clear
1:54 AM 66.0 °F 45.0 °F 47% 29.94 in 10.0 mi ESE 4.6 mph - N/A   Clear
2:54 AM 64.0 °F 44.1 °F 48% 29.94 in 10.0 mi Calm Calm - N/A   Clear
3:54 AM 60.1 °F 44.1 °F 55% 29.94 in 10.0 mi Calm Calm - N/A   Clear
4:54 AM 57.9 °F 44.1 °F 60% 29.96 in 10.0 mi South 3.5 mph - N/A   Clear
5:54 AM 61.0 °F 45.0 °F 56% 29.98 in 10.0 mi ENE 3.5 mph - N/A   Clear
6:54 AM 66.9 °F 45.0 °F 45% 29.99 in 10.0 mi Calm Calm - N/A   Clear
7:54 AM 73.0 °F 44.1 °F 35% 29.99 in 10.0 mi Calm Calm - N/A   Clear
8:54 AM 80.1 °F 44.1 °F 28% 29.96 in 10.0 mi Calm Calm - N/A   Clear
9:54 AM 84.0 °F 45.0 °F 25% 29.96 in 10.0 mi Calm Calm - N/A   Clear
10:54 AM 86.0 °F 44.1 °F 23% 29.95 in 10.0 mi Variable 3.5 mph - N/A   Clear
11:54 AM 89.1 °F 41.0 °F 19% 29.93 in 10.0 mi Variable 3.5 mph - N/A   Clear
12:54 PM 91.9 °F 39.0 °F 16% 29.91 in 10.0 mi Variable 3.5 mph - N/A   Clear
1:11 PM 89.6 °F 37.4 °F 16% 30.24 in 10.0 mi SSW 8.1 mph - N/A Thunderstorm Mostly Cloudy
1:15 PM 89.6 °F 39.2 °F 17% 30.23 in 7.0 mi SSW 36.8 mph 54.1 mph N/A Thunderstorm Squalls
1:26 PM 82.4 °F 44.6 °F 26% 30.26 in 9.0 mi South 27.6 mph 52.9 mph 0.00 in Rain Light Rain
1:54 PM 86.0 °F 37.0 °F 18% 29.94 in 10.0 mi SE 21.9 mph 35.7 mph 0.00 in   Mostly Cloudy
2:30 PM 91.4 °F 35.6 °F 14% 30.21 in 10.0 mi West 6.9 mph - N/A Thunderstorm Clear
2:45 PM 93.2 °F 37.4 °F 14% 30.22 in 10.0 mi WSW 18.4 mph 23.0 mph N/A   Clear
2:54 PM 90.0 °F 33.1 °F 13% 29.91 in 10.0 mi SW 24.2 mph 35.7 mph N/A   Clear
3:18 PM 89.6 °F 37.4 °F 16% 30.22 in 10.0 mi WSW 29.9 mph 36.8 mph N/A   Clear
3:54 PM 88.0 °F 35.1 °F 15% 29.91 in 10.0 mi West 27.6 mph 39.1 mph N/A   Clear
4:54 PM 86.0 °F 37.9 °F 18% 29.93 in 10.0 mi WNW 6.9 mph - N/A   Clear
5:54 PM 84.9 °F 44.1 °F 24% 29.91 in 10.0 mi WSW 13.8 mph - N/A   Clear
6:54 PM 86.0 °F 39.9 °F 20% 29.89 in 10.0 mi WSW 10.4 mph - N/A   Clear
7:54 PM 79.0 °F 43.0 °F 28% 29.90 in 10.0 mi SW 9.2 mph - N/A   Clear
8:54 PM 75.9 °F 43.0 °F 31% 29.91 in 10.0 mi SW 6.9 mph - N/A   Clear
9:54 PM 75.0 °F 43.0 °F 32% 29.91 in 10.0 mi SSW 8.1 mph - N/A   Clear
10:54 PM 72.0 °F 41.0 °F 33% 29.92 in 10.0 mi SSW 4.6 mph - N/A   Clear
11:54 PM 68.0 °F 41.0 °F 37% 29.93 in 10.0 mi ENE 8.1 mph - N/A   Clear